This demonstration page uses our WeatherBlox Daily Observations layout. Learn more.

Hourly Observations for February 19, 2020

Temp ( °F °C ) Dew Point ( °F °C ) Humidity (%) Winds ( mph kmh ) Pressure ( in mb ) Visibility ( mi km ) Precip ( " mm )
12:15 am 00:15 Clear 24 -4.6 20 -6.7 85 85 NNE 12 19 30.53 1034 10 16.0934 0 0
12:35 am 00:35 Clear 23 -5 20 -6.4 90 90 NNE 10 17 30.54 1034 10 16.0934 0 0
12:55 am 00:55 Clear 22 -5.6 20 -6.7 92 92 NNE 9 15 30.55 1035 7 11.26538 0 0
1:15 am 01:15 Clear 21 -5.9 20 -6.9 93 93 N 7 11 30.55 1035 10 16.0934 0 0
1:35 am 01:35 Clear 20 -6.6 18 -7.6 93 93 N 8 13 30.58 1036 10 16.0934 0 0
1:55 am 01:55 Mostly Cloudy 20 -6.7 18 -7.6 93 93 N 8 13 30.57 1035 10 16.0934 0 0
2:15 am 02:15 Cloudy 20 -6.7 18 -7.6 93 93 NNE 8 13 30.58 1036 10 16.0934 0 0
2:35 am 02:35 Cloudy 20 -6.5 19 -7.3 94 94 NNE 8 13 30.58 1036 10 16.0934 0 0
2:55 am 02:55 Cloudy 20 -6.5 19 -7.5 93 93 NNE 8 13 30.58 1036 10 16.0934 0 0
3:15 am 03:15 Cloudy 21 -6.2 19 -7.1 93 93 NNE 9 15 30.57 1035 10 16.0934 0 0
3:35 am 03:35 Cloudy 21 -6 19 -7 93 93 NE 13 20 30.56 1035 7 11.26538 0 0
3:55 am 03:55 Cloudy 21 -6 20 -6.8 94 94 NE 14 22 30.54 1034 7 11.26538 0 0
4:15 am 04:15 Cloudy 21 -6 20 -6.7 95 95 NNE 9 15 30.57 1035 7 11.26538 0 0
4:35 am 04:35 Cloudy 21 -6 20 -6.7 95 95 NE 12 19 30.57 1035 7 11.26538 0 0
4:55 am 04:55 Cloudy 21 -6 20 -6.7 95 95 NE 12 19 30.58 1035 7 11.26538 0 0
5:15 am 05:15 Cloudy 22 -5.8 20 -6.6 94 94 NE 12 19 30.58 1036 7 11.26538 0 0
5:35 am 05:35 Cloudy 22 -5.8 20 -6.6 94 94 NE 14 22 30.58 1036 7 11.26538 0 0
5:55 am 05:55 Cloudy 22 -5.8 20 -6.6 94 94 NE 13 20 30.58 1036 7 11.26538 0 0
6:15 am 06:15 Cloudy 22 -5.7 20 -6.5 94 94 NE 15 24 30.58 1036 7 11.26538 0 0
6:35 am 06:35 Cloudy 22 -5.6 20 -6.5 93 93 ENE 15 24 30.59 1036 7 11.26538 0 0
6:55 am 06:55 Cloudy 22 -5.7 20 -6.5 94 94 NE 12 19 30.59 1036 10 16.0934 0 0
7:15 am 07:15 Cloudy 21 -6 20 -6.8 94 94 NE 14 22 30.6 1036 7 11.26538 0 0
7:35 am 07:35 Cloudy 20 -6.4 19 -7.2 94 94 ENE 15 24 30.6 1036 7 11.26538 0 0
7:55 am 07:55 Cloudy 20 -6.5 19 -7.2 95 95 ENE 13 20 30.61 1037 7 11.26538 0 0
8:15 am 08:15 Cloudy 20 -6.7 19 -7.5 94 94 NE 13 20 30.61 1037 7 11.26538 0 0
8:35 am 08:35 Cloudy with Mist and Fog 20 -6.7 19 -7.5 94 94 ENE 14 22 30.62 1037 5 8.0467 0 0
8:55 am 08:55 Cloudy with Mist and Fog 20 -6.6 19 -7.3 95 95 ENE 15 24 30.62 1037 5 8.0467 0 0
9:15 am 09:15 Cloudy 20 -6.7 19 -7.5 94 94 ENE 14 22 30.63 1037 7 11.26538 0 0
9:35 am 09:35 Cloudy 20 -6.7 19 -7.5 94 94 NE 13 20 30.63 1037 10 16.0934 0 0
9:55 am 09:55 Cloudy 20 -6.6 19 -7.5 93 93 NE 16 26 30.64 1038 7 11.26538 0 0
10:15 am 10:15 Cloudy 20 -6.6 19 -7.5 93 93 NE 14 22 30.64 1038 7 11.26538 0 0
10:35 am 10:35 Cloudy 20 -6.7 19 -7.5 94 94 NE 14 22 30.65 1038 7 11.26538 0 0
10:55 am 10:55 Cloudy 20 -6.6 19 -7.5 93 93 NE 15 24 30.65 1038 7 11.26538 0 0
11:15 am 11:15 Cloudy with Mist and Fog 20 -6.5 19 -7.3 94 94 NE 14 22 30.66 1038 5 8.0467 0 0
11:35 am 11:35 Cloudy with Mist and Fog 21 -6.3 19 -7.1 94 94 NE 14 22 30.66 1038 5 8.0467 0 0
11:55 am 11:55 Cloudy with Mist and Fog 20 -6.5 19 -7.2 95 95 ENE 13 20 30.66 1038 4 6.43736 0 0
12:15 pm 12:15 Cloudy with Mist and Fog 20 -6.5 19 -7.4 93 93 ENE 16 26 30.66 1038 4 6.43736 0 0
12:35 pm 12:35 Cloudy 20 -6.5 19 -7.3 94 94 ENE 13 20 30.65 1038 7 11.26538 0 0
12:55 pm 12:55 Cloudy with Mist and Fog 20 -6.5 19 -7.3 94 94 NE 15 24 30.65 1038 5 8.0467 0 0
1:15 pm 13:15 Cloudy 21 -6.2 19 -7 94 94 ENE 16 26 30.63 1037 10 16.0934 0 0
1:35 pm 13:35 Cloudy 21 -6.2 19 -7 94 94 ENE 16 26 30.63 1037 10 16.0934 0 0
1:55 pm 13:55 Cloudy with Light Snow 21 -6.1 19 -7 93 93 NE 16 26 30.63 1037 7 11.26538 0 0
2:15 pm 14:15 Cloudy with Light Snow 21 -6 19 -7 93 93 NE 16 26 30.63 1037 4 6.43736 0 0
2:35 pm 14:35 Cloudy with Light Snow 22 -5.8 19 -7.2 90 90 NE 15 24 30.62 1037 1.75 2.816345 0 0
2:55 pm 14:55 Cloudy with Light Snow 22 -5.7 19 -7.3 89 89 NE 14 22 30.62 1037 2.5 4.02335 0 0
3:15 pm 15:15 Windy with Snow Likely 22 -5.7 19 -7.5 87 87 ENE 20 31 30.62 1037 2.5 4.02335 0 0
3:35 pm 15:35 Cloudy with Light Snow 22 -5.7 18 -7.6 87 87 NE 17 28 30.62 1037 4 6.43736 0 0
3:55 pm 15:55 Windy with Snow Likely 21 -6 18 -7.9 87 87 NE 20 31 30.63 1037 3 4.82802 0 0
4:15 pm 16:15 Cloudy with Light Snow 21 -6 18 -8 86 86 NE 18 30 30.63 1037 2 3.21868 0 0
4:35 pm 16:35 Windy with Snow Likely 20 -6.5 17 -8.4 87 87 NE 21 33 30.64 1038 1.75 2.816345 0 0
4:55 pm 16:55 Cloudy with Light Snow 20 -6.7 16 -8.7 86 86 NE 17 28 30.65 1038 3 4.82802 0 0
5:15 pm 17:15 Windy with Snow Likely 19 -7 16 -9 86 86 NE 21 33 30.68 1039 4 6.43736 0 0
5:35 pm 17:35 Cloudy with Light Snow 19 -7 16 -9 86 86 NE 16 26 30.68 1039 10 16.0934 0 0
5:55 pm 17:55 Cloudy with Light Snow 19 -7.5 15 -9.2 88 88 NE 17 28 30.69 1039 1.5 2.41401 0 0
6:15 pm 18:15 Cloudy with Light Snow 18 -8 14 -9.8 87 87 NE 17 28 30.71 1040 1.75 2.816345 0 0
6:35 pm 18:35 Cloudy with Light Snow 17 -8.6 13 -10.5 86 86 NE 16 26 30.72 1040 4 6.43736 0 0
6:55 pm 18:55 Cloudy with Light Snow 17 -8.6 13 -10.5 86 86 NNE 14 22 30.72 1040 7 11.26538 0 0
7:15 pm 19:15 Cloudy with Light Snow 16 -9.1 12 -11 86 86 NNE 13 20 30.74 1041 7 11.26538 0 0
7:35 pm 19:35 Cloudy with Light Snow 15 -9.4 12 -11.3 86 86 NNE 17 28 30.75 1041 10 16.0934 0 0
7:55 pm 19:55 Cloudy with Light Snow 15 -9.5 11 -11.5 86 86 NE 17 28 30.76 1042 4 6.43736 0 0
8:15 pm 20:15 Cloudy with Light Snow 15 -9.5 11 -11.5 86 86 NE 13 20 30.76 1042 4 6.43736 0 0
8:35 pm 20:35 Cloudy with Light Snow 14 -10 11 -11.6 88 88 NNE 14 22 30.78 1042 4 6.43736 0 0
8:55 pm 20:55 Cloudy 14 -10.1 10 -12 86 86 NNE 13 20 30.78 1042 7 11.26538 0 0
9:15 pm 21:15 Cloudy 13 -10.3 10 -12.2 86 86 NNE 12 19 30.79 1043 10 16.0934 0 0
9:35 pm 21:35 Cloudy 13 -10.7 10 -12.4 87 87 NNE 12 19 30.81 1043 7 11.26538 0 0
9:55 pm 21:55 Cloudy 13 -10.6 10 -12.3 87 87 NNE 13 20 30.81 1043 10 16.0934 0 0
10:15 pm 22:15 Cloudy 13 -10.5 10 -12.4 86 86 NNE 13 20 30.81 1043 10 16.0934 0 0
10:35 pm 22:35 Cloudy 13 -10.5 10 -12.4 86 86 NNE 9 15 30.82 1044 10 16.0934 0 0
10:55 pm 22:55 Partly Cloudy 13 -10.5 10 -12.2 87 87 N 12 19 30.82 1044 10 16.0934 0 0
11:15 pm 23:15 Clear 13 -10.6 10 -12.5 86 86 N 9 15 30.83 1044 10 16.0934 0 0
11:35 pm 23:35 Clear 12 -11 9 -13 85 85 N 10 17 30.85 1045 10 16.0934 0 0
11:55 pm 23:55 Clear 12 -11.3 9 -13 87 87 N 9 15 30.86 1045 10 16.0934 0 0

Powered by AerisWeather